sat.trackr.live / text

‹ back to catalog

STARLINK-33956

NORAD 63927 · 2025-098B

PAYLOAD ACTIVE UNKNOWN

§ Identity

Operator
Country
US
Launch date
2025-05-13
Launch site
AFWTR
Launch vehicle
Mass (kg)
RCS (m²)

Purposes: comms

External: N2YO · Heavens-Above · Gunter

§ Orbital elements

Epoch: 2026-09-20T22:43:25.362048Z

Period
94.14 min
Inclination
69.9996°
Eccentricity
0.0003130
Mean motion
15.29598373 rev/d
Perigee alt
474.9 km
Apogee alt
479.2 km
Semi-major
6,855.1 km
B*
4.9465e-4
RAAN
140.0075°
Arg perigee
269.4759°
Mean anomaly
90.6057°
Rev number
7,586

§ Raw data

STARLINK-339561 63927U 25098B   26263.94682132  .00014126  00000+0  49465-3 0  99992 63927  69.9996 140.0075 0003130 269.4759  90.6057 15.29598373 75868

JSON: /api/v1/satellites/63927 · /tle

For live sub-satellite position, see the globe view (requires WebGL).

§ Visibility from observer

Set your observer location to see the next 7 days of passes ≥ 10°. The values pass through the URL so the page stays shareable.

No JS? Fill the form by hand. The geolocation button needs JavaScript.